{"data":{"norad_id":62009,"intl_designator":"2024-213B","name":"STARLINK-11262 [DTC]","alt_names":[],"object_type":"PAYLOAD","status":"ACTIVE","operator":null,"country":"US","launch_date":"2024-11-18","launch_site_code":"AFWTR","launch_vehicle":null,"mission":null,"orbit_class":"UNKNOWN","rcs_meters":null,"size_class":null,"mass_kg":null,"dimensions":null,"purposes":["comms"],"wikipedia_slug":null,"has_3d_model":false,"image_url":null,"decayed_at":null,"tle_current":{"epoch":"2026-09-21T20:52:11.975520Z","epoch_age_seconds":67268,"freshness":"FRESH","line1":"1 62009U 24213B   26264.86958305  .00153674  00000+0  12452-2 0  9994","line2":"2 62009  53.1590 154.4504 0000676  97.9768 262.1327 15.69801659105728","mean_motion":15.69801659,"eccentricity":6.76e-5,"inclination_deg":53.159,"raan_deg":154.4504,"arg_perigee_deg":97.9768,"mean_anomaly_deg":262.1327,"bstar":0.0012452,"rev_number":10572,"period_min":91.73133381177,"perigee_km":359.00900835018,"apogee_km":359.91993206895,"semimajor_km":6737.6014702096,"source":"CELESTRAK","updated_at":"2026-09-22T09:00:49.482246Z"}}}